{"data":{"norad_id":43279,"intl_designator":"2018-034E","name":"WEINA 1B","alt_names":[],"object_type":"PAYLOAD","status":"ACTIVE","operator":null,"country":"PRC","launch_date":"2018-04-10","launch_site_code":"JSC","launch_vehicle":null,"mission":null,"orbit_class":"UNKNOWN","rcs_meters":null,"size_class":null,"mass_kg":null,"dimensions":null,"purposes":[],"wikipedia_slug":null,"has_3d_model":false,"image_url":null,"decayed_at":null,"tle_current":{"epoch":"2026-09-20T05:15:51.630048Z","epoch_age_seconds":76469,"freshness":"FRESH","line1":"1 43279U 18034E   26263.21934757 -.00000031  00000+0  78108-4 0  9990","line2":"2 43279  63.3938 207.3763 0283609   8.1167 352.4307 13.45376471414990","mean_motion":13.45376471,"eccentricity":0.0283609,"inclination_deg":63.3938,"raan_deg":207.3763,"arg_perigee_deg":8.1167,"mean_anomaly_deg":352.4307,"bstar":7.8108e-5,"rev_number":41499,"period_min":107.03323798503,"perigee_km":877.53439597443,"apogee_km":1301.1018931945,"semimajor_km":7467.4551445845,"source":"CELESTRAK","updated_at":"2026-09-20T09:00:14.319129Z"}}}